Regional Weather Roundup
Issued by NWS Newport/Morehead, NC

Current Version | Previous Version | Graphics & Text | Print | Product List | Glossary Off
Versions: 1 2 3 4 5 6 7 8 9 10 11 12 13 14 15 16 17 18 19 20 21 22 23 24 25 26 27 28 29 30 31 32 33 34 35 36 37 38 39 40 41 42 43 44 45 46 47 48 49 50

391
ASUS42 KMHX 310012
RWRMHX
WEATHER ROUNDUP FOR EASTERN NORTH CAROLINA
NATIONAL WEATHER SERVICE NEWPORT/MOREHEAD CITY NC
800 PM EDT SAT JUL 30 2016

NOTE: "FAIR" INDICATES FEW OR NO CLOUDS BELOW 12,000 FEET
WITH NO SIGNIFICANT WEATHER AND/OR OBSTRUCTIONS TO VISIBILITY

NCZ015>017-031-032-045>047-102-103-310100-
NORTH COAST

CITY           SKY/WX    TMP DP  RH WIND       PRES   REMARKS
EDENTON        CLOUDY   N/A N/A N/A SE5       29.96F
ELIZABETH CITY LGT RAIN  75  73  93 SE7       29.94F
KITTY HAWK     CLOUDY    75  75 100 S3        29.94F
MANTEO         DRIZZLE   76  76  99 S6        29.96F

$$

NCZ045>047-081-094-103-104-310100-
CENTRAL COAST

CITY           SKY/WX    TMP DP  RH WIND       PRES   REMARKS
FRISCO         CLOUDY    82  80  94 S10       29.97S

$$

NCZ095-097-098-100-101-310100-
SOUTHERN COAST

CITY           SKY/WX    TMP DP  RH WIND       PRES   REMARKS
BEAUFORT       CLOUDY    85  82  91 S13       29.95S HX 102
CEDAR ISLAND   NOT AVBL
JACKSONVILLE   MOCLDY    87  75  67 S6        29.94R
PINEY ISLAND   NOT AVBL
WILMINGTON     PTCLDY    88  74  63 SW9       29.95R


$$

NCZ011>013-027>030-043-044-078>080-089-090>093-098-310100-
COASTAL PLAIN

CITY           SKY/WX    TMP DP  RH WIND       PRES   REMARKS
AHOSKIE        CLOUDY    73  73  98 CALM      29.97S
CLINTON        PTCLDY    89  72  56 S3        29.95R
ELIZABETHTOWN  CLOUDY    88  73  61 W8        29.96R
GOLDSBORO      CLOUDY    90  78  68 S3        29.92R HX 104
GREENVILLE     CLOUDY    81  75  83 NE6       29.98R
HAVELOCK       CLOUDY    85  78  80 S9        29.95S
KENANSVILLE    NOT AVBL
KINSTON        PTCLDY    82  77  83 CALM      29.95R
NEW BERN       MOCLDY    84  78  82 S8        29.95S
RICHLANDS      PTCLDY    88  75  65 SW9       29.95R
ROCKY MOUNT    CLOUDY    78  76  93 NE9       29.96R
WASHINGTON     CLOUDY    77  74  91 NE6       29.95R
WHITEVILLE     CLEAR     88  74  62 S5        29.95R

$$

AMZ130-135-150-152-154-156-158-170-250-252-270-ANZ085-086-088-633-658-670-310100-
MARINE OBSERVATIONS

STATION/POSITION TIME  TEMP    WIND        PRES    WAVE   SWELL
                       AIR SEA DIR/SP/G            HT/PER HT/PER
                 (UTC) (F)     (DEG/KT/KT) (MB)    (FT/S) (FT/S)
CHESAPEAKE LIGHT NOT AVBL
64 E VA BEACH    NOT AVBL
DUCK             NOT AVBL
2 E DUCK         NOT AVBL
OREGON INLET     NOT AVBL
13E OREGON INLT  NOT AVBL
HATTERAS CG      NOT AVBL
DIAMOND BUOY     NOT AVBL
CAPE LOOKOUT     NOT AVBL
BEAUFORT LAB     NOT AVBL
30 SE NEW RVR IN NOT AVBL
30 SE NEW RVR IN NOT AVBL
27 SE WRIGHTSVLE NOT AVBL
5 SE WRIGHTSVLE  NOT AVBL
225 S CAPE HAT   NOT AVBL
41 SE CHARLESTON NOT AVBL

$$




USA.gov is the U.S. government's official web portal to all federal, state and local government web resources and services.